LogID,LogEntryDate,LogEntryTime,LogEntrySeconds,LogNotes,AFR,ZTXUser2,RearAFR,EthanolPercent,STFT,CurrentLTFT,IdleLTFT,CruiseLTFT,Load,O2Sensor2,IPW,AFRMAP,LoadTiming,TimingAdv,KnockSum,RPM,Baro,MAP,Boost,WGDC_Active,MAF,IDC,InVVTtarget,ExVVTtarget,InVVTactual,ExVVTactual,TPS,APP,IAT,WGDCCorr,Speed,Battery,ECT,MAT,MAPCalcs,IMAPCalcs,MAFCalcs,ChosenCalc,Custom
1,2017-09-04,19:58:30.37722,0.07565,,,,19.6,76.4705882352941,0,7.2265625,7.2265625,4.4921875,14.0625,4.4896,0,14.7,14.0625,-10,0,2906.25,15.08392496,3.3770415,-11.70688346,12,1.56864,0,11.25,-2.5,10.46875,0.15625,13.7254901960784,9.10588235294118,100.4,0,32.318,14.07936,185,120.2,15.625,0,12.5,14.0625,
2,2017-09-04,19:58:30.39623,0.0948,,,,19.6,76.4705882352941,0,7.2265625,7.2265625,4.4921875,14.0625,4.4896,0,14.7,14.0625,-10,0,2890.625,15.08392496,3.3770415,-11.70688346,12,1.56864,0,11.25,-2.5,10.46875,0.15625,13.7254901960784,9.10588235294118,100.4,0,32.318,14.07936,185,120.2,15.625,0,14.0625,14.0625,
3,2017-09-04,19:58:30.41823,0.11671,,,,19.6,76.4705882352941,0,7.2265625,7.2265625,4.4921875,14.0625,4.4896,0,14.7,14.0625,-10,0,2890.625,15.08392496,3.3770415,-11.70688346,12,1.509816,0,11.25,-2.5,10.46875,0.15625,13.7254901960784,9.10588235294118,100.4,0,32.318,14.07936,185,120.2,15.625,0,12.5,14.0625,
4,2017-09-04,19:58:30.45423,0.15305,,,,19.4823529411765,76.4705882352941,0,7.2265625,7.2265625,4.4921875,14.0625,4.43104,0,14.7,14.0625,-10,0,2898.4375,15.08392496,3.3770415,-11.70688346,12,1.509816,0,11.25,-2.5,10.46875,0.3125,13.7254901960784,9.10588235294118,100.4,0,32.318,14.07936,185,120.2,15.625,0,12.5,14.0625,
5,2017-09-04,19:58:30.50423,0.20278,,,,19.6,76.4705882352941,0,7.2265625,7.2265625,4.4921875,14.0625,4.4896,0,14.7,14.0625,-10,0,2890.625,15.08392496,3.2805546,-11.80337036,12,1.588248,0,11.25,-2.5,10.46875,0.3125,13.7254901960784,9.61176470588235,100.4,0,32.318,14.07936,185,120.2,15.625,0,15.625,14.0625,
6,2017-09-04,19:58:30.52923,0.2281,,,,19.6,76.4705882352941,0,7.2265625,7.2265625,4.4921875,14.0625,4.4896,0,14.7,14.0625,-10,0,2890.625,15.08392496,3.2805546,-11.80337036,12,1.588248,0,11.25,-2.5,10.625,0.3125,13.7254901960784,9.61176470588235,100.4,0,32.318,14.07936,185,120.2,15.625,0,14.0625,14.0625,
7,2017-09-04,19:58:30.55623,0.25501,,,,19.6,76.4705882352941,0,7.2265625,7.2265625,4.4921875,14.0625,4.4896,0,14.7,14.0625,-10,0,2890.625,15.08392496,3.3770415,-11.70688346,12,1.588248,0,11.25,-2.5,10.625,0.3125,13.7254901960784,9.61176470588235,100.4,0,32.318,14.07936,185,120.2,15.625,0,14.0625,14.0625,
8,2017-09-04,19:58:30.58324,0.28126,,,,19.6,76.4705882352941,0,7.2265625,7.2265625,4.4921875,14.0625,4.4896,0,14.7,14.0625,-10,0,2890.625,15.08392496,3.3770415,-11.70688346,12,1.588248,0,11.25,-2.5,10.46875,0.15625,13.7254901960784,9.61176470588235,100.4,0,32.318,14.07936,185,120.2,15.625,0,14.0625,14.0625,
9,2017-09-04,19:58:30.60224,0.30091,,,,19.6,76.4705882352941,0,7.2265625,7.2265625,4.4921875,14.0625,4.4896,0,14.7,14.0625,-10,0,2890.625,15.08392496,3.3770415,-11.70688346,12,1.588248,0,11.25,-2.5,10.46875,0.15625,13.7254901960784,9.61176470588235,100.4,0,32.318,14.07936,185,120.2,15.625,0,12.5,14.0625,
10,2017-09-04,19:58:30.62724,0.32558,,,,19.6,76.4705882352941,0,7.2265625,7.2265625,4.4921875,14.0625,4.4896,0,14.7,14.0625,-10,0,2890.625,15.08392496,3.3770415,-11.70688346,12,1.588248,0,11.25,-2.5,10.625,0.3125,13.7254901960784,9.61176470588235,100.4,0,32.318,14.07936,185,120.2,15.625,0,14.0625,14.0625,
11,2017-09-04,19:58:30.65724,0.35555,,,,19.6,76.4705882352941,0,7.2265625,7.2265625,4.4921875,14.0625,4.4896,0,14.7,14.0625,-10,0,2882.8125,15.08392496,3.3770415,-11.70688346,12,1.490208,0,11.25,-2.5,10.625,0.3125,13.7254901960784,9.61176470588235,100.4,0,32.318,14.07936,185,120.2,15.625,0,12.5,14.0625,
12,2017-09-04,19:58:30.68924,0.38782,,,,19.6,76.4705882352941,0,7.2265625,7.2265625,4.4921875,14.0625,4.4896,0,14.7,14.0625,-10,0,2875,15.08392496,3.3770415,-11.70688346,12,1.490208,0,11.25,-1.875,10.625,0.15625,13.7254901960784,9.61176470588235,100.4,0,32.318,14.07936,185,120.2,15.625,0,12.5,14.0625,
13,2017-09-04,19:58:30.72524,0.4238,,,,19.6,76.4705882352941,0,7.2265625,7.2265625,4.4921875,14.0625,4.4896,0,14.7,14.0625,-10,0,2859.375,15.08392496,3.2805546,-11.80337036,12,1.549032,0,11.25,-1.875,10.625,0.15625,13.7254901960784,9.61176470588235,100.4,0,32.318,14.07936,185,120.2,15.625,0,14.0625,14.0625,
14,2017-09-04,19:58:30.76425,0.46234,,,,19.6,76.4705882352941,0,7.2265625,7.2265625,4.4921875,14.0625,4.4896,0,14.7,14.0625,-10,0,2851.5625,15.08392496,3.2805546,-11.80337036,12,1.549032,0,11.25,-2.5,10.46875,0.15625,13.7254901960784,9.10588235294118,100.4,0,32.318,14.07936,185,120.2,15.625,0,12.5,14.0625,
15,2017-09-04,19:58:30.80825,0.50674,,,,19.6,76.4705882352941,0,7.2265625,7.2265625,4.4921875,14.0625,4.4896,0,14.7,14.0625,-10,0,2843.75,15.08392496,3.3770415,-11.70688346,12.5,1.588248,0,11.25,-2.5,10.46875,0.15625,13.7254901960784,9.10588235294118,100.4,0,32.318,14.00603,185,120.2,15.625,0,14.0625,14.0625,
16,2017-09-04,19:58:30.83625,0.53507,,,,19.6,76.078431372549,0,7.2265625,7.2265625,4.4921875,14.0625,4.4896,0,14.7,14.0625,-10,0,2843.75,15.08392496,3.3770415,-11.70688346,12.5,1.588248,0,11.25,-2.5,10.625,0.15625,13.7254901960784,9.10588235294118,100.4,0,32.318,14.00603,185,120.2,15.625,0,14.0625,14.0625,
17,2017-09-04,19:58:30.87425,0.57222,,,,19.6,76.078431372549,0,7.2265625,7.2265625,4.4921875,14.0625,4.4896,0,14.7,14.0625,-10,0,2843.75,15.08392496,3.2805546,-11.80337036,12.5,1.56864,0,11.25,-2.5,10.625,0.15625,13.3333333333333,9.10588235294118,100.4,0,32.318,14.00603,185,120.2,15.625,0,12.5,14.0625,
18,2017-09-04,19:58:30.90425,0.60268,,,,19.6,76.078431372549,0,7.2265625,7.2265625,4.4921875,14.0625,4.4896,0,14.7,14.0625,-10,0,2843.75,15.08392496,3.2805546,-11.80337036,12.5,1.56864,0,11.25,-2.5,10.625,0.3125,13.3333333333333,9.10588235294118,100.4,0,32.318,14.07936,185,120.2,15.625,0,14.0625,14.0625,
19,2017-09-04,19:58:30.93626,0.63474,,,,19.6,76.078431372549,0,7.2265625,7.2265625,4.4921875,14.0625,4.4896,0,14.7,14.0625,-10,0,2843.75,15.08392496,3.3770415,-11.70688346,11.5,1.529424,0,11.25,-2.5,10.625,0.3125,13.3333333333333,9.10588235294118,100.4,0,32.318,14.07936,185,120.2,15.625,0,14.0625,14.0625,
20,2017-09-04,19:58:30.95826,0.65708,,,,19.6,76.078431372549,0,7.2265625,7.2265625,4.4921875,14.0625,4.4896,0,14.7,14.0625,-10,0,2843.75,15.08392496,3.3770415,-11.70688346,11.5,1.529424,0,11.25,-2.5,10.625,0.3125,13.3333333333333,9.61176470588235,100.4,0,32.318,14.07936,185,120.2,15.625,0,14.0625,14.0625,
21,2017-09-04,19:58:30.98426,0.68275,,,,19.6,76.078431372549,0,7.2265625,7.2265625,4.4921875,14.0625,4.4896,0,14.7,14.0625,-10,0,2843.75,15.08392496,3.3770415,-11.70688346,11.5,1.56864,0,11.25,-2.5,10.625,0.3125,13.3333333333333,9.61176470588235,100.4,0,32.318,14.07936,185,120.2,15.625,0,14.0625,14.0625,
22,2017-09-04,19:58:31.02126,0.71936,,,,19.6,76.4705882352941,0,7.2265625,7.2265625,4.4921875,14.0625,4.4896,0,14.7,14.0625,-10,0,2835.9375,15.08392496,3.3770415,-11.70688346,11.5,1.56864,0,11.25,-2.5,10.46875,0.15625,13.3333333333333,9.61176470588235,100.4,0,32.318,14.07936,185,120.2,15.625,0,14.0625,14.0625,
23,2017-09-04,19:58:31.04826,0.74633,,,,19.6,76.078431372549,0,7.2265625,7.2265625,4.4921875,14.0625,4.4896,0,14.7,14.0625,-10,0,2835.9375,15.08392496,3.3770415,-11.70688346,11.5,1.549032,0,11.25,-2.5,10.46875,0.15625,13.3333333333333,9.61176470588235,100.4,0,32.318,14.07936,185,120.2,15.625,0,14.0625,14.0625,
24,2017-09-04,19:58:31.08626,0.78506,,,,19.6,76.4705882352941,0,7.2265625,7.2265625,4.4921875,14.0625,4.4896,0,14.7,14.0625,-10,0,2828.125,15.08392496,3.3770415,-11.70688346,11.5,1.549032,0,11.25,-2.5,10.625,0.3125,13.3333333333333,9.61176470588235,100.4,0,32.318,14.07936,185,120.2,15.625,0,14.0625,14.0625,
25,2017-09-04,19:58:31.11227,0.8107,,,,19.6,76.4705882352941,0,7.2265625,7.2265625,4.4921875,14.0625,4.4896,0,14.7,14.0625,-10,0,2820.3125,15.08392496,3.3770415,-11.70688346,11.5,1.549032,0,11.25,-2.5,10.625,0.3125,13.3333333333333,9.61176470588235,100.4,0,32.318,14.07936,185,120.2,15.625,0,14.0625,14.0625,
26,2017-09-04,19:58:31.14827,0.84701,,,,19.6,76.4705882352941,0,7.2265625,7.2265625,4.4921875,14.0625,4.4896,0,14.7,14.0625,-10,0,2812.5,15.08392496,3.3770415,-11.70688346,11.5,1.549032,0,11.25,-2.5,10.46875,0.3125,13.7254901960784,9.61176470588235,100.4,0,32.318,14.07936,185,120.2,15.625,0,12.5,14.0625,
27,2017-09-04,19:58:31.18327,0.88169,,,,19.6,76.4705882352941,0,7.2265625,7.2265625,4.4921875,14.0625,4.4896,0,14.7,14.0625,-10,0,2804.6875,15.08392496,3.3770415,-11.70688346,11.5,1.56864,0,11.25,-2.5,10.46875,0.3125,13.7254901960784,9.61176470588235,100.4,0,31.075,14.07936,185,120.2,15.625,0,12.5,14.0625,
28,2017-09-04,19:58:31.21927,0.91772,,,,19.6,76.4705882352941,0,7.2265625,7.2265625,4.4921875,14.0625,4.4896,0,14.7,14.0625,-10,0,2796.875,15.08392496,3.3770415,-11.70688346,11.5,1.56864,0,11.25,-2.5,10.625,0.3125,13.7254901960784,9.61176470588235,100.4,0,31.075,14.07936,185,120.2,15.625,0,12.5,14.0625,
29,2017-09-04,19:58:31.25127,0.94938,,,,19.6,76.4705882352941,0,7.2265625,7.2265625,4.4921875,14.0625,4.4896,0,14.7,14.0625,-10,0,2796.875,15.08392496,3.3770415,-11.70688346,11.5,1.549032,0,11.25,-2.5,10.625,0.3125,13.3333333333333,9.61176470588235,100.4,0,31.075,14.07936,185,120.2,15.625,0,14.0625,14.0625,
30,2017-09-04,19:58:31.27728,0.97547,,,,19.6,76.4705882352941,0,7.2265625,7.2265625,4.4921875,14.0625,4.4896,0,14.7,14.0625,-10,0,2796.875,15.08392496,3.3770415,-11.70688346,11.5,1.549032,0,11.25,-2.5,10.625,0.3125,13.3333333333333,9.61176470588235,100.4,0,31.075,14.00603,185,120.2,15.625,0,12.5,14.0625,
31,2017-09-04,19:58:31.30728,1.00536,,,,19.6,76.4705882352941,0,7.2265625,7.2265625,4.4921875,14.0625,4.4896,0,14.7,14.0625,-10,0,2796.875,15.08392496,3.3770415,-11.70688346,12.5,1.56864,0,11.25,-2.5,10.625,0.3125,13.3333333333333,9.61176470588235,100.4,0,31.075,14.00603,185,120.2,15.625,0,12.5,14.0625,
32,2017-09-04,19:58:31.33828,1.03682,,,,19.6,76.4705882352941,0,7.2265625,7.2265625,4.4921875,14.0625,4.4896,0,14.7,14.0625,-10,0,2789.0625,15.08392496,3.3770415,-11.70688346,12.5,1.56864,0,11.25,-2.5,10.625,0.3125,13.3333333333333,9.10588235294118,100.4,0,31.075,14.00603,185,120.2,15.625,0,14.0625,14.0625,
33,2017-09-04,19:58:31.37028,1.06896,,,,19.6,76.4705882352941,0,7.2265625,7.2265625,4.4921875,14.0625,4.4896,0,14.7,14.0625,-10,0,2789.0625,15.08392496,3.3770415,-11.70688346,11.5,1.509816,0,11.25,-2.5,10.625,0.3125,13.3333333333333,9.10588235294118,100.4,0,31.075,14.07936,185,120.2,15.625,0,14.0625,14.0625,
34,2017-09-04,19:58:31.40428,1.10307,,,,19.6,76.4705882352941,0,7.2265625,7.2265625,4.4921875,14.0625,4.4896,0,14.7,14.0625,-10,0,2781.25,15.08392496,3.3770415,-11.70688346,11.5,1.509816,0,11.25,-2.5,10.46875,0.46875,13.3333333333333,9.10588235294118,100.4,0,31.075,14.07936,185,120.2,15.625,0,12.5,14.0625,
35,2017-09-04,19:58:31.43628,1.13512,,,,19.6,76.4705882352941,0,7.2265625,7.2265625,4.4921875,14.0625,4.4896,0,14.7,14.0625,-10,0,2781.25,15.08392496,3.3770415,-11.70688346,12,1.529424,0,11.25,-2.5,10.46875,0.46875,13.3333333333333,9.61176470588235,100.4,0,31.075,14.07936,185,120.2,15.625,0,14.0625,14.0625,
36,2017-09-04,19:58:31.47629,1.17428,,,,19.6,76.078431372549,0,7.2265625,7.2265625,4.4921875,14.0625,4.4896,0,14.7,14.0625,-10,0,2773.4375,15.08392496,3.3770415,-11.70688346,12,1.529424,0,11.25,-1.875,10.46875,0.3125,13.3333333333333,9.61176470588235,100.4,0,31.075,14.07936,185,120.2,15.625,0,14.0625,14.0625,
37,2017-09-04,19:58:31.50429,1.20254,,,,19.6,76.078431372549,0,7.2265625,7.2265625,4.4921875,14.0625,4.4896,0,14.7,14.0625,-10,0,2773.4375,15.08392496,3.3770415,-11.70688346,12,1.509816,0,11.25,-1.875,10.46875,0.3125,13.3333333333333,9.61176470588235,100.4,0,31.075,14.07936,185,120.2,15.625,0,12.5,12.5,
38,2017-09-04,19:58:31.54029,1.23894,,,,19.6,76.078431372549,0,7.2265625,7.2265625,4.4921875,14.0625,4.4896,0,14.7,14.0625,-10,0,2765.625,15.08392496,3.3770415,-11.70688346,12,1.509816,0,11.25,-1.875,10.625,0.46875,13.3333333333333,9.10588235294118,100.4,0,31.075,14.07936,185,120.2,15.625,0,14.0625,14.0625,
39,2017-09-04,19:58:31.57029,1.26907,,,,19.6,76.078431372549,0,7.2265625,7.2265625,4.4921875,14.0625,4.4896,0,14.7,14.0625,-10,0,2757.8125,15.08392496,3.3770415,-11.70688346,12,1.56864,0,11.25,-1.875,10.625,0.46875,13.3333333333333,9.10588235294118,100.4,0,31.075,14.07936,185,120.2,15.625,0,14.0625,14.0625,
40,2017-09-04,19:58:31.60229,1.30033,,,,19.6,76.078431372549,0,7.2265625,7.2265625,4.4921875,14.0625,4.4896,0,14.7,14.0625,-10,0,2757.8125,15.08392496,3.3770415,-11.70688346,12,1.56864,0,11.25,-2.5,10.46875,0.3125,13.3333333333333,9.10588235294118,100.4,0,31.075,14.07936,185,120.2,15.625,0,14.0625,14.0625,
41,2017-09-04,19:58:31.63730,1.33597,,,,19.6,76.078431372549,0,7.2265625,7.2265625,4.4921875,14.0625,4.4896,0,14.7,14.0625,-10,0,2750,15.08392496,3.3770415,-11.70688346,12,1.490208,0,11.25,-2.5,10.46875,0.3125,13.3333333333333,9.61176470588235,100.4,0,31.075,14.07936,185,120.2,15.625,0,12.5,14.0625,
42,2017-09-04,19:58:31.66330,1.36177,,,,19.6,76.078431372549,0,7.2265625,7.2265625,4.4921875,14.0625,4.4896,0,14.7,14.0625,-10,0,2750,15.08392496,3.3770415,-11.70688346,12,1.490208,0,11.25,-2.5,10.78125,0.3125,13.3333333333333,9.61176470588235,100.4,0,31.075,14.07936,185,120.2,15.625,0,14.0625,14.0625,
43,2017-09-04,19:58:31.69230,1.3908,,,,19.6,76.078431372549,0,7.2265625,7.2265625,4.4921875,14.0625,4.4896,0,14.7,14.0625,-10,0,2750,15.08392496,3.3770415,-11.70688346,12,1.56864,0,11.25,-2.5,10.78125,0.3125,13.3333333333333,9.61176470588235,100.4,0,31.075,14.07936,185,120.2,15.625,0,12.5,14.0625,
44,2017-09-04,19:58:31.72330,1.42127,,,,19.6,76.078431372549,0,7.2265625,7.2265625,4.4921875,14.0625,4.4896,0,14.7,14.0625,-10,0,2742.1875,15.08392496,3.3770415,-11.70688346,12,1.56864,0,11.25,-2.5,10.625,0.3125,13.3333333333333,9.61176470588235,100.4,0,31.075,14.07936,185,120.2,15.625,0,12.5,14.0625,
45,2017-09-04,19:58:31.75830,1.45684,,,,19.6,76.078431372549,0,7.2265625,7.2265625,4.4921875,14.0625,4.4896,0,14.7,14.0625,-10,0,2734.375,15.08392496,3.3770415,-11.70688346,12,1.509816,0,11.25,-2.5,10.625,0.3125,13.3333333333333,9.61176470588235,100.4,0,31.075,14.00603,185,120.2,15.625,0,14.0625,14.0625,
46,2017-09-04,19:58:31.79231,1.49027,,,,19.6,76.078431372549,0,7.2265625,7.2265625,4.4921875,14.0625,4.4896,0,14.7,14.0625,-10,0,2726.5625,15.08392496,3.3770415,-11.70688346,12,1.509816,0,11.25,-1.875,10.625,0.3125,13.3333333333333,9.61176470588235,100.4,0,31.075,14.00603,185,120.2,15.625,0,12.5,12.5,
47,2017-09-04,19:58:31.81631,1.51504,,,,19.6,76.078431372549,0,7.2265625,7.2265625,4.4921875,14.0625,4.4896,0,14.7,14.0625,-10,0,2726.5625,15.08392496,3.3770415,-11.70688346,12,1.549032,0,11.25,-1.875,10.625,0.3125,13.3333333333333,9.61176470588235,100.4,0,31.075,14.00603,185,120.2,15.625,0,12.5,12.5,
48,2017-09-04,19:58:31.85531,1.55326,,,,19.6,76.078431372549,0,7.2265625,7.2265625,4.4921875,12.5,4.4896,0,14.7,12.5,-10,0,2726.5625,15.08392496,3.3770415,-11.70688346,12,1.549032,0,11.25,-1.875,10.625,0.3125,13.3333333333333,9.61176470588235,100.4,0,29.832,14.07936,185,120.2,15.625,0,14.0625,12.5,
49,2017-09-04,19:58:31.89331,1.59173,,,,19.6,76.078431372549,0,7.2265625,7.2265625,4.4921875,14.0625,4.4896,0,14.7,14.0625,-10,0,2718.75,15.08392496,3.4735284,-11.61039656,12,1.549032,0,11.25,-1.875,10.625,0.3125,13.3333333333333,9.61176470588235,100.4,0,29.832,14.07936,185,120.2,15.625,0,14.0625,14.0625,
50,2017-09-04,19:58:31.92331,1.62209,,,,19.6,76.078431372549,0,7.2265625,7.2265625,4.4921875,14.0625,4.4896,0,14.7,14.0625,-10,0,2718.75,15.08392496,3.4735284,-11.61039656,12,1.549032,0,11.25,-1.875,10.46875,0.3125,13.3333333333333,9.10588235294118,100.4,0,29.832,14.07936,185,120.2,15.625,0,12.5,12.5,
51,2017-09-04,19:58:31.95931,1.65776,,,,19.6,76.078431372549,0,7.2265625,7.2265625,4.4921875,14.0625,4.4896,0,14.7,14.0625,-10,0,2710.9375,15.08392496,3.3770415,-11.70688346,12,1.509816,0,11.25,-1.875,10.46875,0.3125,13.3333333333333,9.10588235294118,100.4,0,29.832,14.07936,185,120.2,15.625,0,12.5,12.5,
52,2017-09-04,19:58:31.99232,1.6904,,,,19.6,76.078431372549,0,7.2265625,7.2265625,4.4921875,14.0625,4.4896,0,14.7,14.0625,-10,0,2703.125,15.08392496,3.3770415,-11.70688346,12,1.509816,0,11.25,-1.875,10.78125,0.3125,13.3333333333333,9.10588235294118,100.4,0,29.832,14.07936,185,120.2,15.625,0,12.5,12.5,
53,2017-09-04,19:58:32.03032,1.72825,,,,19.6,76.078431372549,0,7.2265625,7.2265625,4.4921875,12.5,4.4896,0,14.7,12.5,-10,0,2703.125,15.08392496,3.3770415,-11.70688346,12,1.549032,0,11.25,-1.875,10.78125,0.3125,13.3333333333333,9.61176470588235,100.4,0,29.832,14.07936,185,120.2,15.625,0,12.5,12.5,
54,2017-09-04,19:58:32.06232,1.76056,,,,19.6,76.078431372549,0,7.2265625,7.2265625,4.4921875,12.5,4.4896,0,14.7,12.5,-10,0,2703.125,15.08392496,3.3770415,-11.70688346,12,1.549032,0,11.25,-1.875,10.625,0.3125,13.3333333333333,9.61176470588235,100.4,0,29.832,14.00603,185,120.2,15.625,0,12.5,12.5,
55,2017-09-04,19:58:32.08932,1.78804,,,,19.6,76.078431372549,0,7.2265625,7.2265625,4.4921875,12.5,4.4896,0,14.7,12.5,-10,0,2703.125,15.08392496,3.3770415,-11.70688346,12,1.509816,0,11.25,-1.875,10.625,0.3125,13.3333333333333,9.61176470588235,100.4,0,29.832,14.00603,185,120.2,15.625,0,12.5,12.5,
56,2017-09-04,19:58:32.12132,1.81954,,,,19.6,76.078431372549,0,7.2265625,7.2265625,4.4921875,12.5,4.4896,0,14.7,12.5,-10,0,2695.3125,15.08392496,3.3770415,-11.70688346,12,1.509816,0,11.25,-1.875,10.625,0.3125,13.3333333333333,9.10588235294118,100.4,0,29.832,14.00603,185,120.2,15.625,0,12.5,12.5,
57,2017-09-04,19:58:32.15533,1.85407,,,,19.6,76.078431372549,0,7.2265625,7.2265625,4.4921875,12.5,4.4896,0,14.7,12.5,-10,0,2687.5,15.08392496,3.3770415,-11.70688346,12,1.529424,0,11.25,-1.875,10.625,0.3125,13.3333333333333,9.10588235294118,100.4,0,29.832,14.07936,185,120.2,15.625,0,14.0625,12.5,
58,2017-09-04,19:58:32.18733,1.88572,,,,19.6,76.078431372549,0,7.2265625,7.2265625,4.4921875,12.5,4.4896,0,14.7,12.5,-10,0,2679.6875,15.08392496,3.3770415,-11.70688346,12,1.529424,0,11.25,-1.875,10.46875,0.3125,13.3333333333333,9.10588235294118,100.4,0,29.832,14.07936,185,120.2,15.625,0,12.5,12.5,
59,2017-09-04,19:58:32.22633,1.92502,,,,19.6,76.078431372549,0,7.2265625,7.2265625,4.4921875,12.5,4.4896,0,14.7,12.5,-10,0,2679.6875,15.08392496,3.4735284,-11.61039656,12.5,1.56864,0,11.25,-1.875,10.46875,0.3125,13.3333333333333,9.61176470588235,100.4,0,29.832,14.07936,185,120.2,15.625,0,14.0625,12.5,
60,2017-09-04,19:58:32.26733,1.96546,,,,19.5607843137255,76.078431372549,0,7.2265625,7.2265625,4.4921875,14.0625,4.47008,0,14.7,14.0625,-10,0,2679.6875,15.08392496,3.4735284,-11.61039656,12.5,1.56864,0,11.25,-1.875,10.625,0.3125,13.3333333333333,9.61176470588235,100.4,0,29.832,14.07936,185,120.2,15.625,0,12.5,12.5,
61,2017-09-04,19:58:32.31534,2.01387,,,,19.3647058823529,76.078431372549,0,7.2265625,7.2265625,4.4921875,12.5,4.35296,0,14.7,14.0625,-10,0,2671.875,15.08392496,3.3770415,-11.70688346,12.5,1.549032,0,11.25,-1.875,10.625,0.3125,13.3333333333333,9.61176470588235,100.4,0,29.832,14.07936,185,120.2,15.625,0,12.5,12.5,
62,2017-09-04,19:58:32.35534,2.05363,,,,19.6,76.078431372549,0,7.2265625,7.2265625,4.4921875,14.0625,4.4896,0,14.7,14.0625,-10,0,2664.0625,15.08392496,3.3770415,-11.70688346,12.5,1.549032,0,11.25,-1.875,10.625,0.3125,13.3333333333333,9.10588235294118,100.4,0,29.832,14.07936,185,120.2,15.625,0,14.0625,14.0625,
63,2017-09-04,19:58:32.38934,2.08793,,,,19.6,76.078431372549,0,7.2265625,7.2265625,4.4921875,14.0625,4.4896,0,14.7,14.0625,-10,0,2656.25,15.08392496,3.4735284,-11.61039656,12.5,1.56864,0,11.25,-1.875,10.625,0.3125,13.3333333333333,9.10588235294118,100.4,0,29.832,14.07936,185,120.2,15.625,0,14.0625,14.0625,
64,2017-09-04,19:58:32.41434,2.11267,,,,19.6,76.078431372549,0,7.2265625,7.2265625,4.4921875,14.0625,4.4896,0,14.7,14.0625,-10,0,2656.25,15.08392496,3.4735284,-11.61039656,12.5,1.56864,0,11.25,-2.5,10.625,0.3125,13.3333333333333,9.10588235294118,100.4,0,29.832,14.07936,185,120.2,15.625,0,12.5,14.0625,
65,2017-09-04,19:58:32.44434,2.1424,,,,19.6,76.078431372549,0,7.2265625,7.2265625,4.4921875,14.0625,4.4896,0,14.7,14.0625,-10,0,2656.25,15.08392496,3.4735284,-11.61039656,12.5,1.549032,0,11.25,-2.5,10.625,0.3125,13.3333333333333,9.61176470588235,100.4,0,29.832,14.07936,185,120.2,15.625,0,15.625,14.0625,
66,2017-09-04,19:58:32.47234,2.17053,,,,19.6,76.078431372549,0,7.2265625,7.2265625,4.4921875,14.0625,4.4896,0,14.7,14.0625,-10,0,2648.4375,15.08392496,3.4735284,-11.61039656,12.5,1.549032,0,11.25,-2.5,10.625,0.3125,13.3333333333333,9.61176470588235,100.4,0,29.832,14.07936,185,120.2,15.625,0,14.0625,14.0625,
67,2017-09-04,19:58:32.50335,2.2021,,,,19.6,76.078431372549,0,7.2265625,7.2265625,4.4921875,14.0625,4.4896,0,14.7,14.0625,-10,0,2640.625,15.08392496,3.4735284,-11.61039656,12.5,1.509816,0,11.25,-2.5,10.625,0.3125,13.3333333333333,9.61176470588235,100.4,0,29.832,14.07936,185,120.2,15.625,0,12.5,14.0625,
68,2017-09-04,19:58:32.53335,2.23212,,,,19.6,76.078431372549,0,7.2265625,7.2265625,4.4921875,14.0625,4.4896,0,14.7,14.0625,-10,0,2632.8125,15.08392496,3.4735284,-11.61039656,12.5,1.509816,0,11.25,-2.5,10.625,0.46875,13.3333333333333,9.61176470588235,100.4,0,29.832,14.07936,185,120.2,15.625,0,14.0625,14.0625,
69,2017-09-04,19:58:32.56635,2.26506,,,,19.6,76.078431372549,0,7.2265625,7.2265625,4.4921875,14.0625,4.4896,0,14.7,14.0625,-10,0,2632.8125,15.08392496,3.4735284,-11.61039656,12.5,1.549032,0,11.25,-2.5,10.625,0.46875,13.3333333333333,9.61176470588235,100.4,0,28.589,14.00603,185,120.2,15.625,0,14.0625,14.0625,
70,2017-09-04,19:58:32.60035,2.29904,,,,19.6,76.078431372549,0,7.2265625,7.2265625,4.4921875,14.0625,4.4896,0,14.7,14.0625,-10,0,2625,15.08392496,3.4735284,-11.61039656,12.5,1.549032,0,11.25,-2.5,10.625,0.3125,13.3333333333333,9.61176470588235,100.4,0,28.589,14.00603,185,120.2,15.625,0,15.625,14.0625,
71,2017-09-04,19:58:32.62835,2.3266,,,,19.6,76.078431372549,0,7.2265625,7.2265625,4.4921875,14.0625,4.4896,0,14.7,14.0625,-10,0,2632.8125,15.08392496,3.4735284,-11.61039656,12.5,1.549032,0,11.25,-2.5,10.625,0.3125,13.3333333333333,9.61176470588235,100.4,0,28.589,14.00603,185,120.2,15.625,0,14.0625,14.0625,
72,2017-09-04,19:58:32.66136,2.35956,,,,19.6,76.078431372549,0,7.2265625,7.2265625,4.4921875,14.0625,4.4896,0,14.7,14.0625,-10,0,2632.8125,15.08392496,3.4735284,-11.61039656,12.5,1.549032,0,11.25,-2.5,10.46875,0.3125,13.3333333333333,9.61176470588235,100.4,0,28.589,14.07936,185,120.2,15.625,0,14.0625,14.0625,
73,2017-09-04,19:58:32.69336,2.39169,,,,19.6,76.078431372549,0,7.2265625,7.2265625,4.4921875,14.0625,4.4896,0,14.7,14.0625,-10,0,2625,15.08392496,3.4735284,-11.61039656,12.5,1.509816,0,11.25,-2.5,10.46875,0.3125,13.3333333333333,9.61176470588235,100.4,0,28.589,14.07936,185,120.2,15.625,0,14.0625,14.0625,
74,2017-09-04,19:58:32.73136,2.42946,,,,19.6,76.078431372549,0,7.2265625,7.2265625,4.4921875,14.0625,4.4896,0,14.7,14.0625,-10,0,2625,15.08392496,3.4735284,-11.61039656,12.5,1.509816,0,11.875,-2.5,10.625,0.46875,13.3333333333333,9.10588235294118,100.4,0,28.589,14.07936,185,120.2,15.625,0,12.5,14.0625,
75,2017-09-04,19:58:32.76436,2.46242,,,,19.6,76.078431372549,0,7.2265625,7.2265625,4.4921875,14.0625,4.4896,0,14.7,14.0625,-10,0,2617.1875,15.08392496,3.4735284,-11.61039656,13,1.509816,0,11.875,-2.5,10.625,0.46875,13.3333333333333,9.10588235294118,100.4,0,28.589,14.07936,185,120.2,15.625,0,14.0625,14.0625,
76,2017-09-04,19:58:32.79436,2.49302,,,,19.6,76.078431372549,0,7.2265625,7.2265625,4.4921875,14.0625,4.4896,0,14.7,14.0625,-10,0,2609.375,15.08392496,3.4735284,-11.61039656,13,1.509816,0,11.875,-2.5,10.625,0.3125,13.3333333333333,9.10588235294118,100.4,0,28.589,14.07936,185,120.2,15.625,0,12.5,14.0625,